Regional Weather Roundup
Issued by NWS Mobile, AL

Home | Current Version | Previous Version | Text Only | Print | Product List | Glossary On
Versions: 1 2 3 4 5 6 7 8 9 10 11 12 13 14 15 16 17 18 19 20 21 22 23 24 25 26 27
000
ASUS44 KMOB 181112
RWRMOB
REGIONAL WEATHER ROUNDUP
NATIONAL WEATHER SERVICE MOBILE AL
500 AM CST MON DEC 18 2017

NOTE: "FAIR" INDICATES FEW OR NO CLOUDS BELOW 12,000 FEET WITH NO
      SIGNIFICANT WEATHER AND/OR OBSTRUCTIONS TO VISIBILITY.

  * THESE STATIONS ARE PART OF THE UNIVERSITY OF SOUTH ALABAMA
    MESONET AND ARE NOT UNDER NWS OR FAA QUALITY CONTROL.

ALZ061>064-181200-
COASTAL ALABAMA

CITY           SKY/WX    TMP DP  RH WIND       PRES   REMARKS
MOBILE REG APT FOG       64  63  96 CALM      30.14S VSB 1/4
BROOKLEY FIELD FOG       61  61 100 E5        30.14S VSB 1/4
USA CAMPUS*    NOT AVBL
DOG RIVER*     NOT AVBL


CITY           SKY/WX    TMP DP  RH WIND       PRES   REMARKS
GULF SHORES    CLOUDY    66  66 100 E6        30.13S

$$

ALZ051>060-181200-
INTERIOR SOUTHWEST AND SOUTH CENTRAL ALABAMA

CITY           SKY/WX    TMP DP  RH WIND       PRES   REMARKS
GREENVILLE     FOG       59  56  89 CALM      30.15R VSB 1/4
EVERGREEN      FOG       64  63  96 CALM      30.14F VSB 1/2
ATMORE*          N/A    N/A N/A N/A CALM        N/A
ANDALUSIA/OPP  FOG       69  67  93 W3        30.15R VSB 1/4
ANDALUSIA*       N/A     66  66 100 W2        30.15S
FLORALA APT    CLOUDY    68  66  93 CALM      30.17R
FLORALA*         N/A     66  66 100 CALM      30.88R

$$

FLZ001>006-181200-
WESTERN FLORIDA PANHANDLE

CITY           SKY/WX    TMP DP  RH WIND       PRES   REMARKS
PENSACOLA      CLOUDY    69  67  93 S3        30.13F
NAS PENSACOLA  CLOUDY    68  66  93 SW6       30.13S
MILTON         FOG       65  65 100 N3        30.14S VSB 1
WHTNG S FIELD  FOG       69  67  93 CALM      30.14S VSB 1/2


CITY           SKY/WX    TMP DP  RH WIND       PRES   REMARKS
JAY*             N/A     64  64 100 CALM      30.14S
DUKE FIELD     CLOUDY    68  68 100 SW3       30.14S FOG
CRESTVIEW      FOG       66  65  96 CALM      30.16R VSB 1/2
VALPARAISO     MOCLDY    70  70 100 CALM      30.14R
DESTIN         CLOUDY    73  69  87 CALM      30.14S

$$

MSZ076-079-181200-
INTERIOR SOUTHEAST MISSISSIPPI

CITY           SKY/WX    TMP DP  RH WIND       PRES   REMARKS
LEAKESVILLE*   NOT AVBL
AGRICOLA*      NOT AVBL

$$

MARINE OBSERVATIONS

STATION/POSITION TIME  TEMP    WIND        PRES    WAVE
                       AIR SEA DIR/SP/G            HT/PER
                 (UTC) (F)     (DEG/KT/KT) (MB)    (FT/S)
PASCAGOULA       1036   64     350/  4/  4 1020.0R
PETIT BOIS ISLND 1036   63     120/  3/  4 1020.6F
KATRINA CUT      1030   60      20/  4     1020.0F
CEDAR POINT      1030   61      50/  2     1020.0F
E DAUPHIN ISLAND 1000   66     180/  3/  3 1019.7F
MIDDLE BAY LIGHT 1030   58      40/  8     1020.3F
USCG MOBILE BAY  1036   62 56  100/  2/  3 1020.1F
STATE DOCKS      1036   61 56              1019.9F
MEAHER PARK      1030   63      30/  2     1020.7R
WEEKS BAY        0945   68                 1020.0S
FORT MORGAN      1036   65      20/  2/  3   N/A
12 S ORANGE BCH  NOT AVBL
64 S DAUPHIN ISL 1050   75 74  210/  6/  8 1020.9R   3/ 7
67 S FORT MORGAN 1030   74                 1020.7S

$$

SELECTED LOCATIONS ACROSS THE REGION

CITY           SKY/WX    TMP DP  RH WIND       PRES   REMARKS
NEW ORLEANS    TSTM      65  65 100 N3        30.13R
GULFPORT       CLOUDY    64  63  96 NW7       30.14R
PASCAGOULA AP  FOG       65  63  93 CALM      30.14R VSB 3/4
PASCAGOULA*    NOT AVBL
HATTIESBURG    FOG       58  58 100 NW3       30.17R VSB 1
LAUREL         FOG       57  57 100 CALM      30.17R VSB 1/2
MERIDIAN       CLOUDY    52  52 100 CALM      30.18R FOG
JACKSON        CLOUDY    58  56  93 CALM      30.15S
MONTGOMERY     CLOUDY    53  51  93 CALM      30.17R FOG
TROY           FOG       61  61 100 CALM      30.17R VSB 3/4
ASHFORD*         N/A     66  66 100 W2        30.15S
DOTHAN         CLOUDY    69  69 100 W5        30.19R FOG
PANAMA CITY    CLOUDY    71  70  96 MISG      30.14S

$$





USA.gov is the U.S. government's official web portal to all federal, state and local government web resources and services.